This demonstration page uses our WeatherBlox Daily Observations layout. Learn more.

Left ArrowRight Arrow

39.92423, -83.80882

Hourly Observations for January 23, 2018

Temp ( °F °C ) Dew Point ( °F °C ) Humidity (%) Winds ( mph kmh ) Pressure ( in mb ) Visibility ( mi km ) Precip ( " mm )
12:56 am 00:56 Partly Cloudy 48 8.9 38 3.3 68 68 WSW 17 28 29.6 1002 10 16.0934 0 0.0254
1:56 am 01:56 Partly Cloudy 46 7.8 35 1.7 66 66 WSW 15 24 29.61 1003 10 16.0934 0 0
2:17 am 02:17 Mostly Cloudy 43 6 37 3 81 81 WNW 10 17 29.65 1004 10 16.0934 0 0
2:56 am 02:56 Mostly Cloudy 39 3.9 36 2.2 89 89 WNW 3 6 29.64 1004 10 16.0934 0 0
3:56 am 03:56 Cloudy 39 3.9 36 2.2 89 89 Calm 29.63 1003 10 16.0934 0 0
4:56 am 04:56 Cloudy 42 5.6 33 0.6 71 71 SW 16 26 29.62 1003 10 16.0934 0 0
5:56 am 05:56 Cloudy 39 3.9 35 1.7 86 86 W 18 30 29.66 1005 10 16.0934 0 0.0254
6:29 am 06:29 Cloudy 37 3 36 2 93 93 W 16 26 29.68 1005 10 16.0934 0 0
6:47 am 06:47 Cloudy with Light Rain 37 3 34 1 87 87 WSW 16 26 29.71 1006 10 16.0934 0 0.0254
6:56 am 06:56 Cloudy with Light Rain 38 3.3 33 0.6 83 83 WSW 17 28 29.68 1005 10 16.0934 0 0.0254
7:56 am 07:56 Cloudy 37 2.8 32 0 82 82 WSW 15 24 29.71 1006 10 16.0934 0 0.0254
8:27 am 08:27 Cloudy 37 3 30 -1 75 75 WSW 15 24 29.74 1007 10 16.0934 0 0
8:51 am 08:51 Cloudy with Light Rain 37 3 30 -1 75 75 SW 18 30 29.74 1007 10 16.0934 0 0.0254
8:56 am 08:56 Cloudy with Light Rain 37 2.8 31 -0.6 79 79 WSW 20 31 29.72 1007 10 16.0934 0 0.0254
9:56 am 09:56 Cloudy with Light Rain 37 2.8 33 0.6 86 86 WSW 22 35 29.75 1008 10 16.0934 0 0.0254
10:56 am 10:56 Cloudy 37 2.8 31 -0.6 79 79 WSW 22 35 29.78 1009 10 16.0934 0 0.0254
11:56 am 11:56 Cloudy 37 2.8 32 0 82 82 WSW 24 39 29.79 1009 10 16.0934 0 0
12:56 pm 12:56 Cloudy 37 2.8 32 0 82 82 WSW 22 35 29.79 1009 10 16.0934 0 0
1:56 pm 13:56 Cloudy 38 3.3 32 0 79 79 W 24 39 29.8 1009 10 16.0934 0 0
2:46 pm 14:46 Cloudy 37 3 34 1 87 87 W 24 39 29.83 1010 7 11.26538 0 0
2:56 pm 14:56 Cloudy 37 2.8 34 1.1 89 89 WSW 22 35 29.84 1011 9 14.48406 0 0
3:56 pm 15:56 Cloudy with Light Rain 37 2.8 34 1.1 89 89 WSW 21 33 29.88 1012 10 16.0934 0 0.0254
4:56 pm 16:56 Cloudy with Rain 36 2.2 34 1.1 93 93 W 18 30 29.93 1014 5 8.0467 0.01 0.254
5:04 pm 17:04 Cloudy with Light Rain 36 2 34 1 93 93 W 21 33 29.97 1015 3 4.82802 0 0.0254
5:43 pm 17:43 Cloudy with Light Rain 36 2 34 1 93 93 W 15 24 30 1016 9 14.48406 0.01 0.254
5:56 pm 17:56 Cloudy with Light Rain 35 1.7 33 0.6 93 93 W 16 26 29.97 1015 10 16.0934 0.01 0.254
6:26 pm 18:26 Cloudy 36 2 32 0 87 87 W 13 20 30.03 1017 10 16.0934 0 0.0254
6:48 pm 18:48 Cloudy 36 2 30 -1 81 81 W 13 20 30.03 1017 10 16.0934 0 0.0254
6:56 pm 18:56 Cloudy 35 1.7 31 -0.6 85 85 W 14 22 30 1016 10 16.0934 0 0.0254
7:13 pm 19:13 Cloudy 36 2 30 -1 81 81 W 12 19 30.03 1017 10 16.0934 0 0
7:56 pm 19:56 Cloudy 35 1.7 31 -0.6 85 85 W 15 24 30.02 1017 10 16.0934 0 0
8:10 pm 20:10 Cloudy with Light Rain 34 1 32 0 93 93 W 16 26 30.06 1018 8 12.87472 0 0.0254
8:29 pm 20:29 Cloudy with Light Snow 34 1 32 0 93 93 WNW 17 28 30.06 1018 2.5 4.02335 0 0.0254
8:38 pm 20:38 Cloudy with Light Snow 34 1 32 0 93 93 W 15 24 30.06 1018 4 6.43736 0 0.0254
8:56 pm 20:56 Cloudy with Light Snow 33 0.6 31 -0.6 92 92 WNW 16 26 30.04 1017 4 6.43736 0 0.0254
9:20 pm 21:20 Cloudy with Light Snow 34 1 30 -1 87 87 WNW 16 26 30.09 1019 9 14.48406 0 0.0254
9:28 pm 21:28 Cloudy with Light Snow 34 1 30 -1 87 87 W 14 22 30.09 1019 9 14.48406 0 0.0254
9:35 pm 21:35 Cloudy with Light Snow 34 1 30 -1 87 87 W 16 26 30.09 1019 9 14.48406 0 0.0254
9:56 pm 21:56 Windy with Snow Likely 32 0 30 -1.1 92 92 WNW 20 31 30.06 1018 9 14.48406 0 0.0254
10:38 pm 22:38 Cloudy with Light Snow 32 0 28 -2 87 87 W 15 24 30.09 1019 9 14.48406 0 0.0254
10:48 pm 22:48 Cloudy with Light Snow 32 0 28 -2 87 87 WNW 18 30 30.12 1020 9 14.48406 0 0.0254
10:56 pm 22:56 Cloudy with Light Snow 32 0 29 -1.7 88 88 WNW 14 22 30.09 1019 9 14.48406 0 0.0254
11:56 pm 23:56 Cloudy with Light Snow 31 -0.6 28 -2.2 89 89 W 17 28 30.1 1019 9 14.48406 0 0.0254

Powered by AerisWeather